THOR ABLESTAR DEB, 48814

Orbit data source: Space-Track

THOR ABLESTAR DEB, 48814 is space debris in LEO originally from a launch on Thu, 29 Jun 1961 UTC launched from the Air Force Eastern Test Range (AFETR). Debris objects in space refer to the collection of defunct objects orbiting the Earth. Examples of debris include non-operational satellites, rocket bodies, and fragments generated from explosions, collisions, or faulty payload assembly.

Loading next visibility...
Identifier
48814, 1961-015MS
Orbit
LEO
Country
Flag of USUS
Related business
Manufacturer
Unknown
Mission
Spacecraft
Bus & Motor
Unknown
Mass
Unknown
Launch date (UTC)
1961-06-29 (64 years ago)
Launch vehicle
Unknown
Launch site
Air Force Eastern Test Range (AFETR)
Object type
Payload
Rocket body
Debris
Shape & HBR
Unknown shape, 0.1 m
Radar Cross Section
Small (<0.1 m²)

Expand to show TLE details & history
Last TLE update: 7 hours ago

TLE from 7 hours ago
0 THOR ABLESTAR DEB
1 48814U 61015MS  25347.03475424  .00004502  00000-0  32992-2 0  9996
2 48814  65.9059 350.3885 0032989 246.5636 113.1969 13.96466852609562
Epoch: 2025-12-13T00:50Z
TLE epoch observation values (Epoch: 2025-12-13T00:50:02.766Z)
Latitude
0.00001°
Longitude
-104.09084°
Altitude
917.601 km
Speed
7.389 km/s
True Right ascension
23h 21m 33s
True Declination
0° 00' 00"
Sunlit
Object was in daylight at epoch
Visualization orbit readout
Latitude
Unknown
Longitude
Unknown
Altitude
Unknown
Speed
Unknown
Apparent Right ascension
Unknown
Apparent Declination
Unknown
Sunlit
N/A
Visualization observer readout
Local Sidereal Time
06:29:10
Azimuth
Unknown
Elevation
Unknown
Doppler factor
Unknown
Orbital elements
Apogee altitude
928.573 km
Perigee altitude
880.524 km
Semi-major axis
7,282.686 km
Eccentricity
0.0033
Inclination
65.9059°
RAAN
350.3885°
Arg. of periapsis
246.5636°
True anomaly
113.5438°
Mean anomaly
113.1969°
Eccentric anomaly
113.37041°
Mean motion
3.49225 °/min
Orbital period
103.09 mins
BSTAR
0.0032992
Loading maneuver chart data...
Computing Atmospheric mass density...

Documentation

Showing up to 5 results
|